Pardubice, Czech Republic

9:29 AM CEST on October 01, 2016 (GMT +0200)
Pardubice

Weather History for LKPD - November, 2012

Change the Weather History Date:

Sunday, November 11, 2012

  Actual Average Record
Temperature  
Mean Temperature 45 °F -  
Max Temperature 51 °F - - ()
Min Temperature 39 °F - - ()
Degree Days  
Heating Degree Days 20    
Moisture  
Dew Point 41 °F    
Average Humidity 84    
Maximum Humidity 93    
Minimum Humidity 67    
Precipitation  
Precipitation 0.00 in - - ()
Sea Level Pressure  
Sea Level Pressure 29.88 in    
Wind  
Wind Speed 4 mph ()    
Max Wind Speed 8 mph    
Max Gust Speed -    
Visibility 5.8 miles    
Events Rain    
T = Trace of Precipitation, MM = Missing Value Source: Averaged Metar Reports

Daily Weather History Graph

Daily Weather History Graph

Search for Another Location

Airport or City:

Trip Planner

Search our weather history database for the weather conditions in past years. The results will help you decide how hot, cold, wet, or windy it might be!

Date:

Astronomy

Nov. 11, 2012 Rise Set
Actual Time 7:03 AM CET 4:17 PM CET
Civil Twilight 6:28 AM CET 4:52 PM CET
Nautical Twilight 5:49 AM CET 5:31 PM CET
Astronomical Twilight 5:11 AM CET 6:09 PM CET
Moon 3:42 AM CET (11/11) 2:41 PM CET (11/11)
Length of Visible Light 10h 24m
Length of Day
9h 14m
Waning Crescent, 9% of the Moon is Illuminated
Nov 11
Waning Crescent
Nov 13
New
Nov 20
First Quarter
Nov 28
Full
Dec 6
Last Quarter

Hourly Weather History & Observations

Time (CET) Temp. Windchill Dew Point Humidity Pressure Visibility Wind Dir Wind Speed Gust Speed Precip Events Conditions
12:00 AM 42.8 °F 38.0 °F 39.2 °F 87% 29.80 in - East 8.1 mph - N/A   Clear
1:00 AM 42.8 °F 39.3 °F 39.2 °F 87% 29.80 in - East 5.8 mph - N/A   Clear
2:00 AM 41.0 °F 36.4 °F 37.4 °F 87% 29.83 in - ESE 6.9 mph - N/A   Clear
3:00 AM 42.8 °F 38.0 °F 39.2 °F 87% 29.80 in - East 8.1 mph - N/A   Clear
4:00 AM 42.8 °F - 39.2 °F 87% 29.83 in 6.2 mi Calm Calm - N/A   Mostly Cloudy
5:00 AM 41.0 °F - 39.2 °F 93% 29.83 in 6.2 mi SW 2.3 mph - N/A   Overcast
6:00 AM 41.0 °F - 39.2 °F 93% 29.83 in 6.2 mi Variable 1.2 mph - N/A   Mostly Cloudy
7:00 AM 39.2 °F - 37.4 °F 93% 29.86 in 4.3 mi Calm Calm - N/A   Overcast
8:00 AM 39.2 °F - 37.4 °F 93% 29.86 in 4.3 mi Calm Calm - N/A   Overcast
9:00 AM 42.8 °F - 41.0 °F 93% 29.86 in 5.0 mi Variable 2.3 mph - N/A   Overcast
10:00 AM 48.2 °F - 41.0 °F 76% 29.86 in 6.2 mi East 4.6 mph - N/A   Overcast
11:00 AM 50.0 °F - 42.8 °F 76% 29.86 in 6.2 mi East 4.6 mph - N/A   Mostly Cloudy
12:00 PM 51.8 °F - 41.0 °F 67% 29.89 in 6.2 mi South 4.6 mph - N/A   Overcast
1:00 PM 51.8 °F - 41.0 °F 67% 29.86 in 6.2 mi Variable 2.3 mph - N/A   Overcast
2:00 PM 51.8 °F - 42.8 °F 71% 29.86 in - ESE 4.6 mph - N/A   Clear
3:00 PM 51.8 °F - 42.8 °F 71% 29.86 in - East 3.5 mph - N/A   Clear
4:00 PM 48.2 °F - 42.8 °F 82% 29.86 in - SE 2.3 mph - N/A   Clear
5:00 PM 48.2 °F - 41.0 °F 76% 29.89 in - East 2.3 mph - N/A   Clear
6:00 PM 46.4 °F - 42.8 °F 87% 29.89 in - Calm Calm - N/A   Clear
7:00 PM 44.6 °F 42.2 °F 41.0 °F 87% 29.92 in - ESE 4.6 mph - N/A   Clear
8:00 PM 44.6 °F - 41.0 °F 87% 29.95 in - Variable 1.2 mph - N/A   Clear
9:00 PM 42.8 °F 41.1 °F 41.0 °F 93% 29.98 in 6.2 mi South 3.5 mph - N/A   Mostly Cloudy
10:00 PM 44.6 °F 41.4 °F 42.8 °F 93% 30.04 in 6.2 mi West 5.8 mph - N/A   Mostly Cloudy
11:00 PM 44.6 °F 42.2 °F 42.8 °F 93% 30.04 in 6.2 mi WSW 4.6 mph - N/A Rain Light Rain